Location: ??
(35.4032°N, 139.3073°E)
Time: 02:39:28
(UTC+00:00)

Lacrosse 5 - Pass Details

Date: 13 April 2024
Orbit: 714 x 724 km, 57.0° (Epoch: 09 March)

Event Time Altitude Azimuth Distance (km) Brightness Sun altitude
Exits shadow 17:28:54 14° 333° (NNW) 1,944 4.2 -30.5°
Drops below altitude 10° 17:31:27 10° 3° (N) 2,218 4.9 -30.1°
Sets 17:35:01 0° 28° (NNE) 3,141 6.2 -29.6°
